EW9046 Weather Reports


time (UTC)temp
C
wind
direction
speed
KPH
gust
KPH
rain 1hr
cm
rain 24hr
cm
rain mn
cm
humidity
%
barometer
mb
20260508023006 10 98 0.0 1.6 0.00 0.13 0.03 60 1012.9
20260508021507 10 46 0.0 1.6 0.00 0.13 0.03 58 1012.8
20260508020004 10 46 0.0 1.6 0.00 0.13 0.03 57 1012.6
20260508014504 11 25 0.0 6.4 0.00 0.13 0.03 56 1012.3
20260508013001 11 67 1.6 6.4 0.00 0.13 0.03 55 1012.1
20260508011607 11 101 0.0 6.4 0.00 0.13 0.03 56 1011.9
20260508010100 11 321 0.0 1.6 0.00 0.13 0.03 58 1011.5
20260508004602 11 54 0.0 4.8 0.00 0.13 0.03 57 1011.3
20260508003058 12 85 0.0 3.2 0.00 0.13 0.03 57 1011.0
20260508001559 13 259 0.0 3.2 0.00 0.13 0.03 56 1010.7
20260508000057 14 359 0.0 8.0 0.00 0.13 0.03 55 1010.3
20260507234558 15 319 0.0 4.8 0.00 0.13 0.03 57 1009.9
20260507233059 15 273 0.0 8.0 0.00 0.13 0.03 75 1009.8
20260507231552 15 75 0.0 4.8 0.00 0.13 0.03 78 1009.4
20260507230107 17 250 0.0 6.4 0.00 0.13 0.03 73 1009.2
20260507224553 17 222 4.8 11.3 0.00 0.13 0.03 74 1009.0
20260507223051 16 195 3.2 11.3 0.00 0.13 0.03 75 1008.8
20260507221550 17 211 4.8 11.3 0.00 0.13 0.03 74 1008.6
20260507220054 17 238 3.2 11.3 0.00 0.13 0.03 72 1008.4
20260507214548 17 257 4.8 11.3 0.00 0.13 0.03 73 1008.2
20260507213048 17 260 9.7 17.7 0.00 0.13 0.03 73 1008.2
20260507211546 16 188 3.2 12.9 0.00 0.13 0.03 76 1008.2
20260507210056 16 242 9.7 14.5 0.00 0.13 0.03 74 1008.2
20260507204643 16 205 6.4 14.5 0.00 0.13 0.03 77 1008.2
20260507203107 15 224 8.0 20.9 0.00 0.13 0.03 79 1008.5
20260507201539 15 174 4.8 11.3 0.00 0.13 0.03 80 1008.4
20260507200041 14 167 1.6 11.3 0.00 0.13 0.03 81 1008.7
20260507194538 15 239 6.4 12.9 0.00 0.13 0.03 79 1009.0
20260507193039 15 213 8.0 16.1 0.00 0.13 0.03 79 1009.1
20260507191539 14 254 6.4 19.3 0.00 0.13 0.03 80 1009.4
20260507190034 14 210 3.2 11.3 0.00 0.13 0.03 81 1009.6
20260507184532 13 244 6.4 11.3 0.00 0.13 0.03 82 1009.7
20260507183030 13 229 3.2 11.3 0.00 0.13 0.03 81 1009.8
20260507181528 13 206 6.4 12.9 0.00 0.13 0.03 79 1009.9
20260507180034 13 172 1.6 8.0 0.00 0.13 0.03 83 1010.0
20260507174536 13 188 6.4 9.7 0.00 0.13 0.03 82 1010.1
20260507173048 13 207 3.2 12.9 0.00 0.13 0.03 84 1010.3
20260507171526 12 181 1.6 8.0 0.03 0.13 0.03 87 1010.4
20260507170024 12 228 4.8 11.3 0.03 0.13 0.03 85 1010.9
20260507164522 12 230 4.8 11.3 0.03 0.13 0.03 86 1010.8
20260507163025 11 163 1.6 4.8 0.03 0.13 0.03 83 1011.1
20260507161521 12 212 0.0 6.4 0.00 0.10 0.00 83 1011.4
20260507160019 11 127 0.0 1.6 0.00 0.10 0.00 86 1011.4
20260507154518 11 94 0.0 6.4 0.00 0.10 0.00 87 1011.7
20260507153017 10 73 1.6 4.8 0.00 0.10 0.00 85 1011.9
20260507151516 11 124 0.0 4.8 0.00 0.10 0.00 86 1012.1
20260507150023 10 22 0.0 1.6 0.00 0.10 0.00 86 1011.9
20260507144516 10 45 0.0 4.8 0.00 0.10 0.00 86 1011.9
20260507143015 10 63 1.6 6.4 0.00 0.10 0.00 84 1011.8
20260507141515 10 79 0.0 3.2 0.00 0.10 0.00 85 1012.2
20260507140014 10 82 1.6 6.4 0.00 0.10 0.00 84 1012.4
20260507134514 10 67 1.6 6.4 0.00 0.13 0.00 85 1012.4
20260507133018 10 82 0.0 4.8 0.00 0.13 0.00 85 1012.4
20260507131515 10 68 1.6 4.8 0.00 0.13 0.00 86 1012.4
20260507130012 10 89 1.6 3.2 0.00 0.13 0.00 86 1012.2
20260507124511 10 328 0.0 3.2 0.00 0.15 0.00 86 1012.5
20260507123013 10 70 3.2 6.4 0.00 0.15 0.00 85 1012.3
20260507121508 10 65 0.0 4.8 0.00 0.15 0.00 86 1012.2
20260507120006 10 67 0.0 3.2 0.00 0.15 0.00 86 1012.1
20260507114506 10 106 0.0 6.4 0.00 0.18 0.00 86 1011.9
20260507113010 10 77 0.0 3.2 0.00 0.18 0.00 88 1011.9
20260507111504 10 38 1.6 4.8 0.00 0.18 0.00 88 1011.7
20260507110002 10 2 0.0 4.8 0.00 0.18 0.00 89 1011.5
20260507104605 10 73 1.6 4.8 0.00 0.18 0.00 89 1011.4
20260507103100 10 51 1.6 6.4 0.00 0.18 0.00 89 1011.1
20260507101601 10 66 1.6 8.0 0.00 0.18 0.00 89 1011.1
20260507100057 11 86 1.6 6.4 0.00 0.18 0.00 90 1011.1
20260507094601 11 75 0.0 4.8 0.00 0.18 0.00 90 1011.0
20260507093055 11 66 1.6 8.0 0.00 0.18 0.00 90 1011.0
20260507091553 11 57 1.6 11.3 0.00 0.18 0.00 91 1010.7
20260507090050 11 230 1.6 8.0 0.00 0.18 0.00 92 1010.9
20260507084549 11 84 0.0 11.3 0.00 0.18 0.00 92 1010.8
20260507083047 11 92 0.0 4.8 0.00 0.18 0.00 92 1010.6
20260507081545 12 130 3.2 9.7 0.00 0.18 0.00 92 1010.3
20260507080044 12 78 1.6 8.0 0.00 0.18 0.00 92 1010.5
20260507074546 12 51 3.2 9.7 0.00 0.18 0.00 92 1010.3
20260507073043 13 53 1.6 8.0 0.00 0.18 0.00 92 1010.6
20260507071536 14 83 3.2 8.0 0.00 0.18 0.00 92 1010.3
20260507070042 15 213 0.0 1.6 0.00 0.18 0.00 91 1009.6
20260507064530 15 212 1.6 3.2 0.00 0.18 0.00 92 1009.8
20260507063028 15 221 0.0 1.6 0.00 0.18 0.00 91 1009.6
20260507061526 15 221 1.6 6.4 0.00 0.18 0.00 90 1009.9
20260507060026 15 179 3.2 6.4 0.00 0.18 0.00 88 1009.8
20260507054525 15 212 0.0 4.8 0.00 0.18 0.00 88 1010.2
20260507053024 16 229 3.2 17.7 0.00 0.18 0.00 87 1010.2
20260507051521 15 278 0.0 1.6 0.00 0.18 0.00 91 1010.3
20260507050027 15 108 0.0 4.8 0.00 0.18 0.00 92 1010.0
20260507044518 15 247 1.6 4.8 0.00 0.18 0.00 92 1009.4
20260507043017 15 253 1.6 14.5 0.10 0.18 0.00 91 1008.7
20260507041513 16 167 1.6 4.8 0.10 0.18 0.00 91 1009.3
20260507040009 16 277 3.2 8.0 0.10 0.18 0.00 91 1009.9
20260507034509 16 234 6.4 14.5 0.08 0.15 0.15 88 1009.5
20260507033010 17 262 6.4 14.5 0.00 0.08 0.08 87 1010.5
20260507031507 17 274 9.7 16.1 0.00 0.08 0.08 86 1010.2
20260507030007 17 293 6.4 12.9 0.00 0.08 0.08 87 1010.2
20260507024509 17 212 0.0 4.8 0.00 0.08 0.08 86 1009.5